User: anonymous   Login
Location: Fort Wayne
(41.1310°N, 85.1290°W)
Time: 18:14:11
(UTC-05:00)
Language:

Cosmos 1000 Rocket - Orbit

View from above orbital plane
View from above orbital plane
View from above satellite
View from above satellite

Ground track
Ground track

The orbit data is extracted from the following two-line orbital elements,

1 10777U 78034B   17023.96456641 +.00000052 +00000-0 +36912-4 0  9990
2 10777 082.9446 337.8425 0024786 240.8747 182.8945 13.77386917950539
Epoch (UTC): 23 January 2017 23:08:58
Eccentricity: 0.0024786
inclination: 82.9446°
perigee height: 955 km
apogee height: 991 km
right ascension of ascending node: 337.8425°
argument of perigee: 240.8747°
revolutions per day: 13.77386917
mean anomaly at epoch: 182.8945°
orbit number at epoch: 95053

The dashed part of the orbit path shows where the satellite is in the earth's shadow,  

DLR